Regional Weather Roundup
Issued by NWS

Home | Current Version | Previous Version | Text Only | Print | Product List | Glossary Off
Versions: 1 2 3 4 5 6 7 8 9 10 11 12 13 14 15 16 17 18 19 20 21 22 23 24 25 26 27 28 29 30 31 32 33 34 35 36 37 38 39 40 41 42 43 44 45 46 47 48 49 50

000
ASUS43 KBIS 240910
RWRND

NORTH DAKOTA REGIONAL WEATHER ROUNDUP
NATIONAL WEATHER SERVICE BISMARCK ND
400 AM CDT TUE OCT 24 2017

NOTE: "FAIR" INDICATES FEW OR NO CLOUDS BELOW 12,000 FEET WITH NO
SIGNIFICANT WEATHER AND/OR OBSTRUCTIONS TO VISIBILITY.


NDZ001>003-009>011-017-241000-
NORTHWEST NORTH DAKOTA

CITY           SKY/WX    TMP DP  RH WIND       PRES   REMARKS
WILLISTON      CLEAR     33  26  75 S7        30.39S
MINOT          CLEAR     36  30  79 W13       30.32S
MINOT AFB      CLEAR     32  29  87 NW12      30.31F
$$

NDZ018>021-031>035-040>046-241000-
SOUTHWEST NORTH DAKOTA

CITY           SKY/WX    TMP DP  RH WIND       PRES   REMARKS
BISMARCK       CLEAR     37  31  78 W6        30.32F
DICKINSON      CLEAR     30  24  78 W12       30.38S
GARRISON         N/A     34  30  85 NW15      30.32F
HETTINGER ARPT CLEAR     29  23  78 W12       30.40F WCI  19
$$

NDZ004>008-012>016-024-026-027-054-241000-
NORTHEAST NORTH DAKOTA

CITY           SKY/WX    TMP DP  RH WIND       PRES   REMARKS
GRAND FORKS    CLEAR     32  29  88 NW14      30.17S
GRND FRKS AFB  CLEAR     31  27  82 NW10      30.18S
DEVILS LAKE    CLEAR     30  27  88 NW10      30.25S
$$

NDZ022-023-025-028>030-036>039-047>053-241000-
SOUTHEAST NORTH DAKOTA

CITY           SKY/WX    TMP DP  RH WIND       PRES   REMARKS
FARGO          CLEAR     35  30  82 NW17G25   30.14S
JAMESTOWN      CLEAR     34  29  82 NW15      30.23R
$$





USA.gov is the U.S. government's official web portal to all federal, state and local government web resources and services.